User: anonymous   Login
Location: Vancouver
(49.2500°N, 123.1330°W)
Time: 18:47:26
(UTC-07:00)
Language:

Cosmos 1864 Rocket - Orbit

View from above orbital plane
View from above orbital plane
View from above satellite
View from above satellite

Ground track
Ground track

The orbit data is extracted from the following two-line orbital elements,

1 18161U 87057B   16243.67824959 +.00000118 +00000-0 +10372-3 0  9996
2 18161 082.9329 288.1213 0032201 048.5771 100.5971 13.76949482443981
Epoch (UTC): 30 August 2016 16:16:40
Eccentricity: 0.0032201
inclination: 82.9329°
perigee height: 951 km
apogee height: 998 km
right ascension of ascending node: 288.1213°
argument of perigee: 48.5771°
revolutions per day: 13.76949482
mean anomaly at epoch: 100.5971°
orbit number at epoch: 44398

The dashed part of the orbit path shows where the satellite is in the earth's shadow,  

DLR